Retour au catalogue

STARLINK-31599

ActifCommunicationsVLEO
NORAD 59327·PAYLOAD·🇺🇸 United States

Lancé Mar 25, 2024 depuis Cape Canaveral Space Force Station

Loading…

Prochains Passages (prochaines 24 heures)

TLE

FraisSource: CelesTrak SupGP

Époque: Sep 15, 2026, 02:52 UTC

1 59327C 24057H   26258.11993056 -.00027249  00000+0 -98715-3 0  2587
2 59327  42.9993 197.0555 0001349 273.9387  44.8554 15.27585516    18

Suivez STARLINK-31599 en temps réel avec AllMySat

Download on the App Store